Weather History for Marathon, FL

Change the Weather History Date:

Saturday, December 7, 2013

  Actual Average Record
Temperature  
Mean Temperature 79 °F 73 °F  
Max Temperature 83 °F 78 °F 84 °F (2004)
Min Temperature 75 °F 68 °F 50 °F (2010)
Degree Days  
Heating Degree Days 0 0  
Month to date heating degree days 0 0  
Since 1 July heating degree days 1 1  
Cooling Degree Days 14 9  
Month to date cooling degree days 79 63  
Year to date cooling degree days 5335 4827  
Growing Degree Days 28 (Base 50)    
Moisture  
Dew Point 69 °F    
Average Humidity 74    
Maximum Humidity 82    
Minimum Humidity 65    
Precipitation  
Precipitation T in 0.07 in 0.05 in (2012)
Month to date precipitation 0.05 0.47  
Year to date precipitation 49.62 44.62  
Snow  
Snow 0.00 in - - ()
Month to date snowfall 0.0  
Since 1 July snowfall 0.0  
Snow Depth 0.00 in    
Sea Level Pressure  
Sea Level Pressure 30.15 in    
Wind  
Wind Speed 8 mph (East)    
Max Wind Speed 13 mph    
Max Gust Speed 20 mph    
Visibility 10 miles    
Events      
T = Trace of Precipitation, MM = Missing Value Source: NWS Daily Summary

Daily Weather History Graph

Daily Weather History Graph

Search for Another Location

Airport:

Trip Planner

Search our weather history database for the weather conditions in past years. The results will help you decide how hot, cold, wet, or windy it might be!

Date:

Astronomy

Dec. 07, 2013 Rise Set
Actual Time 6:56 AM EST 5:35 PM EST
Civil Twilight 6:31 AM EST 6:00 PM EST
Nautical Twilight 6:02 AM EST 6:28 PM EST
Astronomical Twilight 5:35 AM EST 6:56 PM EST
Moon 11:01 AM EST (12/7) 10:51 PM EST (12/7)
Length of Visible Light 11h 29m
Length of Day
10h 39m
Waxing Crescent, 29% of the Moon is Illuminated
Dec 7
Waxing Crescent
Dec 9
First Quarter
Dec 17
Full
Dec 25
Last Quarter
Jan 1
New

Hourly Weather History & Observations

Time (EST) Temp. Heat Index Dew Point Humidity Pressure Visibility Wind Dir Wind Speed Gust Speed Precip Events Conditions
12:53 AM 77.0 °F - 66.0 °F 69% 30.15 in 10.0 mi East 6.9 mph - N/A   Clear
1:53 AM 75.9 °F - 66.0 °F 71% 30.14 in 10.0 mi East 5.8 mph - N/A   Partly Cloudy
2:53 AM 75.9 °F - 68.0 °F 76% 30.13 in 10.0 mi East 5.8 mph - N/A   Clear
3:53 AM 75.9 °F - 66.9 °F 74% 30.13 in 10.0 mi East 5.8 mph - N/A   Partly Cloudy
4:53 AM 75.9 °F - 68.0 °F 76% 30.13 in 10.0 mi East 5.8 mph - N/A   Partly Cloudy
5:53 AM 75.9 °F - 69.1 °F 79% 30.15 in 10.0 mi ENE 4.6 mph - N/A   Scattered Clouds
6:01 AM 75.9 °F - 69.1 °F 79% 30.15 in 10.0 mi East 4.6 mph - N/A   Mostly Cloudy
6:09 AM 75.9 °F - 68.0 °F 76% 30.15 in 10.0 mi East 6.9 mph - N/A   Scattered Clouds
6:53 AM 75.9 °F - 68.0 °F 76% 30.16 in 10.0 mi East 5.8 mph - N/A   Clear
7:53 AM 77.0 °F - 69.1 °F 76% 30.18 in 10.0 mi ENE 4.6 mph - N/A   Clear
8:53 AM 79.0 °F - 69.1 °F 72% 30.19 in 10.0 mi East 8.1 mph - N/A   Clear
9:53 AM 78.1 °F - 66.9 °F 68% 30.19 in 10.0 mi East 8.1 mph 18.4 mph 0.00 in   Overcast
10:53 AM 81.0 °F 84.4 °F 70.0 °F 69% 30.19 in 10.0 mi ENE 8.1 mph - N/A   Overcast
11:53 AM 82.0 °F 86.3 °F 71.1 °F 69% 30.17 in 10.0 mi East 6.9 mph - N/A   Scattered Clouds
12:53 PM 82.9 °F 87.0 °F 70.0 °F 65% 30.14 in 10.0 mi East 10.4 mph - N/A   Partly Cloudy
1:53 PM 82.0 °F 85.9 °F 70.0 °F 67% 30.12 in 10.0 mi ESE 9.2 mph - N/A   Clear
2:53 PM 81.0 °F 84.4 °F 70.0 °F 69% 30.12 in 10.0 mi East 11.5 mph - N/A   Clear
3:53 PM 81.0 °F 83.8 °F 68.0 °F 65% 30.12 in 10.0 mi ENE 12.7 mph - N/A   Clear
4:53 PM 79.0 °F - 69.1 °F 72% 30.12 in 10.0 mi East 8.1 mph - N/A   Clear
5:53 PM 78.1 °F - 68.0 °F 71% 30.12 in 10.0 mi ENE 8.1 mph - N/A   Clear
6:53 PM 77.0 °F - 68.0 °F 74% 30.14 in 10.0 mi ENE 8.1 mph - N/A   Clear
7:53 PM 77.0 °F - 69.1 °F 76% 30.14 in 10.0 mi ENE 8.1 mph - N/A   Clear
8:53 PM 77.0 °F - 71.1 °F 82% 30.15 in 10.0 mi ENE 9.2 mph - N/A   Clear
9:53 PM 77.0 °F - 71.1 °F 82% 30.15 in 10.0 mi ENE 10.4 mph - N/A   Partly Cloudy
10:53 PM 77.0 °F - 71.1 °F 82% 30.15 in 10.0 mi ENE 6.9 mph - N/A   Partly Cloudy
11:53 PM 77.0 °F - 66.9 °F 71% 30.15 in 10.0 mi ENE 8.1 mph - N/A   Mostly Cloudy